FW8325 Weather Reports


Display with metric or nautical units.
time (UTC)temp
F
wind
direction
speed
MPH
gust
MPH
rain 1hr
in
rain 24hr
in
rain mn
in
humidity
%
barometer
mb
20260902162645 70 167 11.0 25.0 0.00 0.00 0.00 36 1014.9
20260902161623 69 208 10.0 38.0 0.00 0.00 0.00 38 1015.0
20260902160616 67 182 1.0 9.0 0.00 0.00 0.00 48 1015.0
20260902155645 65 119 0.0 4.0 0.00 0.00 0.00 57 1015.0
20260902154613 65 85 0.0 0.0 0.00 0.00 0.00 59 1015.1
20260902153619 64 49 0.0 0.0 0.00 0.00 0.00 65 1015.1
20260902152645 63 17 0.0 0.0 0.00 0.00 0.00 68 1015.3
20260902151626 64 25 0.0 0.0 0.00 0.00 0.00 63 1015.4
20260902150632 63 164 0.0 0.0 0.00 0.00 0.00 63 1015.4
20260902145618 62 165 0.0 0.0 0.00 0.00 0.00 64 1015.4
20260902144625 61 165 0.0 0.0 0.00 0.00 0.00 65 1015.3
20260902143614 61 180 0.0 0.0 0.00 0.00 0.00 65 1015.3
20260902142641 59 229 0.0 0.0 0.00 0.00 0.00 74 1015.3
20260902141624 58 273 0.0 0.0 0.00 0.00 0.00 76 1015.4
20260902140611 56 286 0.0 0.0 0.00 0.00 0.00 80 1015.4
20260902135619 54 259 0.0 0.0 0.00 0.00 0.00 81 1015.4
20260902134630 53 238 0.0 0.0 0.00 0.00 0.00 82 1015.5
20260902133618 53 238 0.0 0.0 0.00 0.00 0.00 82 1015.6
20260902132623 52 239 0.0 0.0 0.00 0.00 0.00 80 1015.5
20260902131621 52 269 0.0 0.0 0.00 0.00 0.00 79 1015.4
20260902130620 53 271 0.0 0.0 0.00 0.00 0.00 79 1015.3
20260902125627 53 277 0.0 0.0 0.00 0.00 0.00 78 1015.2
20260902124614 53 275 0.0 0.0 0.00 0.00 0.00 78 1015.1
20260902123618 53 274 0.0 0.0 0.00 0.00 0.00 79 1015.2
20260902122646 53 275 0.0 0.0 0.00 0.00 0.00 81 1015.2
20260902121610 53 278 0.0 0.0 0.00 0.00 0.00 81 1015.2
20260902120635 52 275 0.0 0.0 0.00 0.00 0.00 81 1015.4
20260902115624 53 277 0.0 0.0 0.00 0.00 0.00 81 1015.4
20260902114613 53 273 0.0 0.0 0.00 0.00 0.00 81 1015.4
20260902113625 53 271 0.0 0.0 0.00 0.00 0.00 80 1015.4
20260902112613 54 280 0.0 0.0 0.00 0.00 0.00 79 1015.5
20260902111620 54 269 0.0 0.0 0.00 0.00 0.00 77 1015.5
20260902110626 54 270 0.0 0.0 0.00 0.00 0.00 77 1015.5
20260902105619 54 272 0.0 0.0 0.00 0.00 0.00 77 1015.6
20260902104625 54 272 0.0 0.0 0.00 0.00 0.00 78 1015.5
20260902103612 54 274 0.0 0.0 0.00 0.00 0.00 76 1015.6
20260902102619 54 263 0.0 0.0 0.00 0.00 0.00 78 1015.7
20260902101627 54 277 0.0 0.0 0.00 0.00 0.00 77 1015.6
20260902100613 55 270 0.0 0.0 0.00 0.00 0.00 77 1015.8
20260902095620 55 261 0.0 0.0 0.00 0.00 0.00 76 1015.8
20260902094627 55 271 0.0 0.0 0.00 0.00 0.00 76 1015.8
20260902093634 56 275 0.0 0.0 0.00 0.00 0.00 76 1015.9
20260902092623 56 267 0.0 0.0 0.00 0.00 0.00 76 1015.8
20260902091611 56 272 0.0 1.0 0.00 0.00 0.00 75 1015.9
20260902090618 56 265 0.0 0.0 0.00 0.00 0.00 75 1015.7
20260902085627 56 267 0.0 0.0 0.00 0.00 0.00 76 1015.7
20260902084617 56 267 0.0 0.0 0.00 0.00 0.00 76 1015.7
20260902083621 56 273 0.0 2.0 0.00 0.00 0.00 75 1015.7
20260902082626 57 271 0.0 2.0 0.00 0.00 0.00 74 1015.7
20260902081613 57 278 0.0 0.0 0.00 0.00 0.00 74 1015.6
20260902080625 58 259 0.0 3.0 0.00 0.00 0.00 73 1015.6
20260902075613 58 259 0.0 1.0 0.00 0.00 0.00 70 1015.6
20260902074620 57 277 0.0 2.0 0.00 0.00 0.00 70 1015.6
20260902073627 57 275 0.0 0.0 0.00 0.00 0.00 70 1015.4
20260902072620 57 274 0.0 3.0 0.00 0.00 0.00 70 1015.5
20260902071627 57 272 0.0 0.0 0.00 0.00 0.00 71 1015.5
20260902070615 57 281 0.0 0.0 0.00 0.00 0.00 70 1015.5
20260902065625 57 287 0.0 0.0 0.00 0.00 0.00 71 1015.5
20260902064616 57 267 0.0 0.0 0.00 0.00 0.00 72 1015.5
20260902063644 57 272 0.0 0.0 0.00 0.00 0.00 72 1015.6
20260902062650 58 274 0.0 0.0 0.00 0.00 0.00 69 1015.5
20260902061617 59 58 0.0 0.0 0.00 0.00 0.00 70 1015.4
20260902060641 60 56 0.0 0.0 0.00 0.00 0.00 69 1015.4
20260902055611 60 56 0.0 0.0 0.00 0.00 0.00 65 1015.5
20260902054622 60 314 0.0 0.0 0.00 0.00 0.00 69 1015.8
20260902053629 60 167 0.0 0.0 0.00 0.00 0.00 66 1015.8
20260902052616 61 319 0.0 0.0 0.00 0.00 0.00 66 1015.5
20260902051621 61 284 0.0 0.0 0.00 0.00 0.00 67 1015.6
20260902050610 62 192 0.0 2.0 0.00 0.00 0.00 65 1015.4
20260902045617 64 163 1.0 5.0 0.00 0.00 0.00 60 1015.9
20260902044623 65 144 3.0 7.0 0.00 0.00 0.00 59 1016.0
20260902043630 63 146 0.0 0.0 0.00 0.00 0.00 56 1015.7
20260902042621 63 296 0.0 4.0 0.00 0.00 0.00 58 1015.7
20260902041629 63 277 0.0 0.0 0.00 0.00 0.00 61 1016.1
20260902040617 64 121 0.0 0.0 0.00 0.00 0.00 63 1015.6
20260902035627 63 174 0.0 0.0 0.00 0.01 0.00 60 1015.6
20260902034619 64 174 0.0 0.0 0.00 0.01 0.00 55 1015.6
20260902033628 65 181 0.0 0.0 0.00 0.01 0.00 54 1015.5
20260902032616 65 186 0.0 0.0 0.00 0.01 0.00 56 1015.7
20260902031644 66 194 0.0 3.0 0.00 0.01 0.00 56 1015.8
20260902030616 63 117 0.0 1.0 0.00 0.01 0.00 67 1015.4
20260902025625 62 189 0.0 0.0 0.00 0.01 0.00 59 1015.1
20260902024612 62 269 0.0 0.0 0.00 0.01 0.00 58 1015.0
20260902023619 62 277 0.0 0.0 0.00 0.01 0.00 58 1014.9
20260902022611 63 273 0.0 0.0 0.00 0.01 0.00 56 1015.0
20260902021618 65 219 0.0 0.0 0.00 0.01 0.00 54 1014.9
20260902020624 66 215 0.0 0.0 0.00 0.01 0.00 51 1015.0
20260902015615 66 215 0.0 0.0 0.00 0.01 0.00 49 1015.0
20260902014628 66 196 0.0 0.0 0.00 0.01 0.00 55 1015.0
20260902013615 68 196 0.0 0.0 0.00 0.01 0.00 55 1015.0
20260902012622 69 181 0.0 0.0 0.00 0.01 0.00 54 1015.0
20260902011626 71 158 0.0 0.0 0.00 0.01 0.00 58 1015.1
20260902010616 72 215 0.0 0.0 0.00 0.01 0.00 43 1015.0
20260902005626 72 217 0.0 0.0 0.00 0.01 0.00 45 1015.0
20260902004612 73 209 0.0 0.0 0.00 0.01 0.00 43 1015.1
20260902003616 73 360 0.0 0.0 0.00 0.01 0.00 42 1015.2
20260902002624 72 192 0.0 0.0 0.00 0.01 0.00 46 1015.3
20260902001611 71 206 0.0 1.0 0.00 0.01 0.00 50 1015.2
20260902000612 69 217 1.0 9.0 0.00 0.01 0.00 52 1015.2
20260901235621 69 226 3.0 16.0 0.00 0.04 0.00 50 1015.3
20260901234628 71 200 2.0 13.0 0.00 0.04 0.00 45 1015.5
20260901233640 72 217 2.0 10.0 0.00 0.04 0.00 41 1015.2
20260901232627 73 207 3.0 10.0 0.00 0.04 0.00 42 1015.2
20260901231614 73 198 2.0 13.0 0.00 0.04 0.00 42 1015.2
20260901230622 72 207 3.0 11.0 0.00 0.04 0.00 46 1015.3
20260901225637 74 213 6.0 22.0 0.00 0.05 0.00 41 1015.4
20260901224623 75 198 3.0 20.0 0.00 0.05 0.00 37 1015.4
20260901223630 74 216 2.0 18.0 0.00 0.05 0.00 44 1015.7
20260901222616 74 223 6.0 22.0 0.00 0.05 0.00 39 1015.8
20260901221628 74 223 2.0 12.0 0.00 0.05 0.00 40 1015.9
20260901220616 74 216 3.0 12.0 0.00 0.05 0.00 44 1016.0
20260901215626 73 215 2.0 14.0 0.00 0.16 0.00 44 1016.1
20260901214614 73 211 3.0 9.0 0.00 0.16 0.00 42 1016.1
20260901213626 72 192 1.0 8.0 0.00 0.16 0.00 53 1016.1
20260901212633 72 159 0.0 5.0 0.00 0.16 0.00 45 1016.3
20260901211619 73 165 1.0 12.0 0.00 0.16 0.00 46 1016.6
20260901210626 73 212 3.0 9.0 0.00 0.16 0.00 44 1016.7
20260901205615 70 130 0.0 1.0 0.00 0.16 0.00 54 1016.9
20260901204627 71 98 0.0 0.0 0.00 0.16 0.00 54 1016.9
20260901203634 70 44 0.0 0.0 0.00 0.16 0.00 59 1017.0
20260901202621 69 20 0.0 0.0 0.00 0.16 0.00 59 1017.1
20260901201627 68 336 0.0 0.0 0.00 0.16 0.00 60 1017.3
20260901200617 68 300 0.0 1.0 0.00 0.16 0.00 62 1017.4
20260901195625 69 38 0.0 1.0 0.00 0.16 0.00 64 1017.2
20260901194613 69 32 0.0 0.0 0.00 0.16 0.00 64 1017.4
20260901193641 68 28 0.0 0.0 0.00 0.16 0.00 64 1017.5
20260901192611 67 13 0.0 0.0 0.00 0.16 0.00 64 1017.6
20260901191616 66 22 0.0 1.0 0.00 0.16 0.00 66 1017.7
20260901190623 67 13 0.0 1.0 0.00 0.16 0.00 66 1017.9
20260901185613 67 18 0.0 0.0 0.00 0.16 0.00 65 1018.0
20260901184621 68 23 0.0 0.0 0.00 0.16 0.00 59 1018.0
20260901183614 68 45 0.0 0.0 0.00 0.16 0.00 58 1018.2
20260901182621 67 41 0.0 0.0 0.00 0.16 0.00 61 1018.4
20260901181629 67 64 0.0 0.0 0.00 0.16 0.00 59 1018.4
20260901180627 66 36 0.0 0.0 0.00 0.16 0.00 63 1018.6
20260901175614 65 39 0.0 0.0 0.00 0.16 0.00 68 1018.6
20260901174625 65 51 0.0 0.0 0.00 0.16 0.00 63 1018.8
20260901173612 65 42 0.0 0.0 0.00 0.16 0.00 65 1018.8
20260901172620 64 71 0.0 0.0 0.00 0.16 0.00 64 1018.8
20260901171627 64 107 0.0 0.0 0.00 0.16 0.00 64 1018.9
20260901170617 63 107 0.0 0.0 0.00 0.16 0.00 66 1019.0
20260901165622 63 107 0.0 0.0 0.00 0.16 0.00 67 1019.0
20260901164627 63 105 0.0 0.0 0.00 0.16 0.00 68 1019.0
20260901163614 64 96 0.0 0.0 0.00 0.16 0.00 69 1019.0